Nenana, AK

12:49 PM AKDT on July 27, 2017 (GMT -0800)
Nenana Municipal

Weather History for PANN - November, 2012

Change the Weather History Date:

Saturday, November 17, 2012

  Actual Average Record
Temperature  
Mean Temperature -14 °F -  
Max Temperature 0 °F 9 °F 54 °F (1949)
Min Temperature -27 °F -7 °F -42 °F (2011)
Degree Days  
Heating Degree Days 78    
Moisture  
Dew Point -20 °F    
Average Humidity 66    
Maximum Humidity 75    
Minimum Humidity 52    
Precipitation  
Precipitation 0.00 in - - ()
Sea Level Pressure  
Sea Level Pressure 29.79 in    
Wind  
Wind Speed 2 mph (NE)    
Max Wind Speed 9 mph    
Max Gust Speed -    
Visibility 10 miles    
Events      
Averages and records for this station are not official NWS values.
T = Trace of Precipitation, MM = Missing Value Source: NWS Daily Summary

Daily Weather History Graph

Daily Weather History Graph

Search for Another Location

Airport or City:

Trip Planner

Search our weather history database for the weather conditions in past years. The results will help you decide how hot, cold, wet, or windy it might be!

Date:

Astronomy

Nov. 17, 2012 Rise Set
Actual Time 9:37 AM AKST 3:44 PM AKST
Civil Twilight 8:34 AM AKST 4:47 PM AKST
Nautical Twilight 7:31 AM AKST 5:49 PM AKST
Astronomical Twilight 6:34 AM AKST 6:47 PM AKST
Moon 1:25 PM AKST (11/17) 8:16 PM AKST (11/17)
Length of Visible Light 8h 12m
Length of Day
6h 06m
Waxing Crescent, 21% of the Moon is Illuminated
Nov 17
Waxing Crescent
Nov 20
First Quarter
Nov 28
Full
Dec 6
Last Quarter
Dec 12
New

Hourly Weather History & Observations

Time (AKST) Temp. Windchill Dew Point Humidity Pressure Visibility Wind Dir Wind Speed Gust Speed Precip Events Conditions
12:53 AM -26.0 °F - -34.1 °F 66% 30.04 in 10.0 mi Calm Calm - N/A   Clear
1:53 AM -27.0 °F - -34.1 °F 69% 30.01 in 10.0 mi Calm Calm - N/A   Clear
3:53 AM -25.1 °F - -31.0 °F 74% 29.96 in 10.0 mi Calm Calm - N/A   Clear
4:53 AM -14.1 °F - -20.0 °F 75% 29.93 in 10.0 mi Calm Calm - N/A   Clear
5:53 AM -14.1 °F - -23.1 °F 64% 29.92 in 10.0 mi Calm Calm - N/A   Clear
6:53 AM -14.1 °F - -20.0 °F 75% 29.90 in 10.0 mi Calm Calm - N/A   Clear
7:53 AM -15.0 °F - -22.0 °F 71% 29.88 in 10.0 mi Calm Calm - N/A   Clear
8:53 AM -17.0 °F - -24.0 °F 70% 29.86 in 10.0 mi Calm Calm - N/A   Clear
9:53 AM -18.9 °F - -26.0 °F 70% 29.85 in 10.0 mi Calm Calm - N/A   Clear
10:53 AM -16.1 °F - -23.1 °F 71% 29.83 in 10.0 mi Calm Calm - N/A   Clear
11:53 AM -6.0 °F -14.7 °F -15.0 °F 65% 29.80 in 10.0 mi North 3.5 mph - N/A   Clear
12:53 PM -4.0 °F -16.3 °F -13.0 °F 65% 29.77 in 10.0 mi East 5.8 mph - N/A   Partly Cloudy
1:53 PM -2.9 °F -16.5 °F -13.0 °F 62% 29.74 in 10.0 mi East 6.9 mph - N/A   Clear
2:53 PM -2.0 °F -13.9 °F -14.1 °F 57% 29.71 in 10.0 mi East 5.8 mph - N/A   Clear
3:53 PM -2.9 °F -15.0 °F -14.1 °F 59% 29.70 in 10.0 mi East 5.8 mph - N/A   Clear
4:53 PM -0.9 °F -16.4 °F -15.0 °F 52% 29.68 in 10.0 mi ENE 9.2 mph - N/A   Clear
5:53 PM -5.1 °F -17.6 °F -17.0 °F 57% 29.68 in 10.0 mi East 5.8 mph - N/A   Clear
6:53 PM -5.1 °F -20.4 °F -17.0 °F 57% 29.68 in 10.0 mi East 8.1 mph - N/A   Clear
7:53 PM -8.0 °F - -18.0 °F 61% 29.67 in 10.0 mi Calm Calm - N/A   Clear
8:53 PM -8.0 °F -16.9 °F -18.0 °F 61% 29.66 in 10.0 mi NNE 3.5 mph - N/A   Clear
9:53 PM -13.0 °F -22.7 °F -18.9 °F 75% 29.66 in 10.0 mi NNE 3.5 mph - N/A   Clear
10:53 PM -8.0 °F -16.9 °F -17.0 °F 65% 29.66 in 10.0 mi North 3.5 mph - N/A   Clear
11:53 PM -9.0 °F -18.2 °F -17.0 °F 68% 29.65 in 10.0 mi NNE 3.5 mph - N/A   Clear